STARLINK-5692, 55483

Orbit data source: Space-Track

STARLINK-5692, 55483 is a payload satellite owned by SpaceX/Seattle (US) in LEO that was launched on Thu, 02 Feb 2023 UTC via an FALCON 9 launch vehicle from the Air Force Eastern Test Range (AFETR). Payload-class satellites include a variety of spacecraft equipped with specific instruments for various scientific and technological missions. These include communications satellites like Starlink; space stations such as the ISS; scientific satellites like the Hubble; Earth observation satellites from companies like Planet Labs, Umbra, and HawkEye 360; GPS; miniature CubeSats for education and research; and military/defense satellites.

Loading next visibility...
Identifier
55483, 2023-015AL
Orbit
LEO
Country
Flag of USUS
Related business
Manufacturer
SpaceX/Seattle
Mission
Operational spacecraft
Bus & Motor
STARLINK, Unknown motor
Mass
305 kg wet, ~290 kg dry
Launch date (UTC)
2023-02-02 (3 years ago)
Launch vehicle
FALCON 9
Launch site
Air Force Eastern Test Range (AFETR)
Object type
Payload
Rocket body
Debris
Shape & HBR
Unknown shape, 10.1 m
Radar Cross Section
Large (>1 m²)

Expand to show TLE details & history
Last TLE update: 1 day ago

TLE from 1 day ago
0 STARLINK-5692
1 55483U 23015AL  25352.25423895 -.00000021  00000-0  13546-4 0  9998
2 55483  43.0043  61.5068 0001164 255.9638 104.1075 15.02542408158358
Epoch: 2025-12-18T06:06Z
TLE epoch observation values (Epoch: 2025-12-18T06:06:06.245Z)
Latitude
-0.00001°
Longitude
-117.13162°
Altitude
559.035 km
Speed
7.584 km/s
True Right ascension
04h 06m 01s
True Declination
0° 00' 00"
Sunlit
Object was in full shadow at epoch
Visualization orbit readout
Latitude
Unknown
Longitude
Unknown
Altitude
Unknown
Speed
Unknown
Apparent Right ascension
Unknown
Apparent Declination
Unknown
Sunlit
N/A
Visualization observer readout
Local Sidereal Time
07:47:56
Azimuth
Unknown
Elevation
Unknown
Doppler factor
Unknown
Orbital elements
Apogee altitude
561.791 km
Perigee altitude
560.175 km
Semi-major axis
6,939.12 km
Eccentricity
0.00012
Inclination
43.0043°
RAAN
61.5068°
Arg. of periapsis
255.9638°
True anomaly
104.12044°
Mean anomaly
104.1075°
Eccentric anomaly
104.11397°
Mean motion
3.7548 °/min
Orbital period
95.88 mins
BSTAR
0.000013546
Loading maneuver chart data...
Computing Atmospheric mass density...
Loading historical data...
Loading historical data...
Loading historical data...
Loading historical data...
Loading historical data...
Loading historical data...
Loading historical data...

Documentation

Showing up to 5 results
|